Regional Weather Roundup
Issued by NWS Raleigh/Durham, NC

Home | Current Version | Previous Version | Text Only | Print | Product List | Glossary On
Versions: 1 2 3 4 5 6 7 8 9 10 11 12 13 14 15 16 17 18 19 20 21 22 23 24 25 26 27
000
ASUS42 KRAH 300510
RWRRAH
NORTH CAROLINA WEATHER ROUNDUP
NATIONAL WEATHER SERVICE RALEIGH NC
100 AM EDT MON MAY 30 2016

NOTE: "FAIR" INDICATES FEW OR NO CLOUDS BELOW 12,000 FEET WITH NO
SIGNIFICANT WEATHER AND/OR OBSTRUCTIONS TO VISIBILITY.

NCZ001-053-055-056-065-067-300600-
WESTERN NORTH CAROLINA

CITY           SKY/WX    TMP DP  RH WIND       PRES   REMARKS
ASHEVILLE      CLOUDY    63  59  87 CALM      30.12S
JEFFERSON      CLEAR     59  54  85 NW3       30.16S
MORGANTON      CLOUDY    58  58 100 CALM      30.13S
HICKORY        CLOUDY    65  60  84 CALM      30.07F
RUTHERFORDTON  CLOUDY    63  63  99 NW3       30.08S
MOUNT AIRY     MOCLDY    64  60  87 CALM      30.10S
BOONE          CLEAR     53  53 100 CALM      30.17S
$$

NCZ021-022-025-041-071-084-088-300600-
CENTRAL NORTH CAROLINA

CITY           SKY/WX    TMP DP  RH WIND       PRES   REMARKS
CHARLOTTE      CLOUDY    67  59  75 N8        30.05R
GREENSBORO     MOCLDY    64  59  83 NE5       30.05F
WINSTON-SALEM  CLOUDY    63  59  87 N7        30.08R
RALEIGH-DURHAM MOCLDY    66  64  93 NE5       30.03F
FORT BRAGG     CLOUDY    69  69  99 N6        29.99F
FAYETTEVILLE   CLOUDY    72  70  93 N9        29.99F
BURLINGTON     CLOUDY    66  59  78 NE3       30.05S
LAURINBURG     CLOUDY    71  69  93 NE8       29.99F
$$

NCZ011-015-027-028-043-044-047-080-103-300600-
NORTHEASTERN NORTH CAROLINA

CITY           SKY/WX    TMP DP  RH WIND       PRES   REMARKS
ROCKY MT-WILSO MOCLDY    71  70  96 CALM      30.02F
GREENVILLE     MOCLDY    73  72  94 CALM      30.04F
WASHINGTON     MOCLDY    73  71  92 SE5       30.03S
ELIZABETH CITY LGT RAIN  73  71  93 SE5       30.04F
MANTEO         NOT AVBL
CAPE HATTERAS  CLOUDY    76  71  85 S12       30.05S
$$

NCZ078-087-090-091-093-098-101-300600-
SOUTHEASTERN NORTH CAROLINA

CITY           SKY/WX    TMP DP  RH WIND       PRES   REMARKS
LUMBERTON      CLOUDY    74  71  91 E7        29.98S
GOLDSBORO      NOT AVBL
KINSTON        CLEAR     74  72  94 SE3       30.02F
KENANSVILLE    CLOUDY    72  72  99 CALM      30.02S FOG
NEW BERN       MOCLDY    74  71  91 SE5       30.03S
CHERRY POINT   CLOUDY    73  71  93 SE6       30.03S
BEAUFORT       PTCLDY    75  73  93 SE6       30.02F
JACKSONVILLE   PTCLDY    75  72  90 SE5       30.00F
WILMINGTON     MOCLDY    74  72  93 E3        29.99S
$$





USA.gov is the U.S. government's official web portal to all federal, state and local government web resources and services.